Showing default

TRANSIT 5B-1, 670

Orbit data source: Space-Track

TRANSIT 5B-1, 670 is a payload satellite owned by USN BuWeps (US) in LEO that was launched on Sat, 28 Sep 1963 UTC via a THOR ABLESTAR launch vehicle from the Air Force Western Test Range (AFWTR). Payloads include a variety of satellites, spacecraft, and rockets equipped with specific instruments for various scientific and technological missions. These include communications satellites like Starlink; space stations such as the ISS; scientific satellites like the Hubble; Earth observation satellites from companies like Planet Labs, Umbra, and HawkEye 360; GPS; miniature CubeSats for education and research; and military/defense satellites.

Loading next visibility...
TRANSIT 5B-1 details
Identifier
670, 1963-038B
Orbit
LEO
Last TLE update20 hours ago
Origin
Flag of USUSN BuWeps (US)
ManufacturerAPL
MissionDefense Navigation
Bus & MotorTRANSIT 5, Unknown motor
Mass69 kg wet, 69 kg dry
Launch date (UTC)
1963-09-28 (61 years ago)
Launch vehicle
THOR ABLESTAR
Launch site
Air Force Western Test Range (AFWTR)
Object type
Payload
Rocket body
Debris
Shape & HBROct Cyl + 1 Rod, 31 m
Radar Cross Section0.334 m², Medium (>0.1 m² and < 1m²)

Expand to show TLE details & history

TLE from 20 hours ago
0 TRANSIT 5B-1
1 00670U 63038B   25017.91182476  .00000147  00000-0  23325-3 0  9996
2 00670  89.9853 334.2607 0043433  70.4956 290.0876 13.44586379  4949
Epoch: 2025-01-17T21:53Z
Definitive object data (Epoch: 2025-01-17T21:53:01.659Z)
Latitude0.00004°
Longitude-111.56488°
Altitude1,084.168 km
Speed7.315 km/s
True Right ascension22h 17m 02s
True Declination0° 00' 00"
Sunlit
Object was in daylight at TLE epoch
Visualization TLE readout
Latitude-23.09347°
Longitude-111.57231°
Altitude1,101.373 km
Speed7.3 km/s
Apparent Right ascension01h 12m 08s
Apparent Declination-48° 48' 28"
Sunlit
Object is in daylight
Visualization observer readout
Local Sidereal Time18:17:57
Azimuth126.755° SE
Elevation-36.952°
Doppler factor1
Orbital elements
Apogee altitude1,121.734 km
Perigee altitude1,056.867 km
Semi-major axis7,467.438 km
Eccentricity0.0043433
Inclination89.9853°
RAAN334.2607°
Arg. of periapsis70.4956°
True anomaly289.6193°
Mean anomaly290.0876°
Eccentric anomaly289.85354°
Mean motion3.36346 °/min
BSTAR0.00023325
Orbital period107.03 mins
Loading maneuver chart data...

TRANSIT 5B-1 Visibility forecast

Observer location: undefined°, undefined

Span
Click to sort rows by Start time (UTC) header in descending order
Start Az.
Max El. time (UTC)
Max El. Az.
Max El.
End time (UTC)
End Az.
4 mins2025-01-18 19:29:57.036Z87.555° E2025-01-18 19:31:57.036Z69.415° E11.682°2025-01-18 19:33:57.036Z51.023° ENE
11 mins2025-01-18 21:12:57.036Z171.657° S2025-01-18 21:17:57.036Z76.517° E44.753°2025-01-18 21:23:57.036Z359.834° N
4 mins2025-01-18 23:03:57.036Z267.511° W2025-01-18 23:05:57.036Z287.558° WNW14.047°2025-01-18 23:07:57.036Z306.883° NW
10 mins2025-01-19 08:25:57.036Z26.813° NE2025-01-19 08:29:57.036Z76.234° E31.14°2025-01-19 08:35:57.036Z149.008° SSE
10 mins2025-01-19 10:12:57.036Z335.629° NNW2025-01-19 10:16:57.036Z286.273° WNW29.485°2025-01-19 10:22:57.036Z220.652° SW
|